NETSAT-1

Last updated on Tue Jul 01 2025 00:03:44 GMT+0000 (Coordinated Universal Time)

1 46506U 20068W 25181.46306014 .00005801 00000+0 23933-3 0 9994 2 46506 97.8489 157.0430 0007607 144.5502 215.6242 15.24450247261543
UTC large
Height (km)
Speed (km/s)
/
Latitude / Longitude
Inclination (degrees)
Orbital Period (minutes)
Azimuth
Elevation
Range (km)
Doppler Factor

Next 0 passes for location: London (51.5072 / 0.1276)

Sorry there are no passes over London.